Gastonia, NC

11:50 PM EDT on October 16, 2017 (GMT -0400)
Gastonia Municipal

Weather History for KAKH - February, 2013

Change the Weather History Date:

Thursday, February 21, 2013

  Actual Average (KCLT) Record (KCLT)
Temperature  
Mean Temperature 42 °F -  
Max Temperature 57 °F 57 °F 75 °F (2011)
Min Temperature 28 °F 34 °F 6 °F (1896)
Degree Days  
Heating Degree Days 22    
Moisture  
Dew Point 19 °F    
Average Humidity 39    
Maximum Humidity 61    
Minimum Humidity 20    
Precipitation  
Precipitation 0.01 in - - ()
Sea Level Pressure  
Sea Level Pressure 30.16 in    
Wind  
Wind Speed 5 mph (ENE)    
Max Wind Speed 8 mph    
Max Gust Speed -    
Visibility 10 miles    
Events Rain    
Averages and records for this station are not official NWS values.
T = Trace of Precipitation, MM = Missing Value Source: NWS Daily Summary

Daily Weather History Graph

Daily Weather History Graph

Search for Another Location

Airport or City:

Trip Planner

Search our weather history database for the weather conditions in past years. The results will help you decide how hot, cold, wet, or windy it might be!

Date:

Astronomy

Feb. 21, 2013 Rise Set
Actual Time 7:03 AM EST 6:13 PM EST
Civil Twilight 6:38 AM EST 6:38 PM EST
Nautical Twilight 6:08 AM EST 7:08 PM EST
Astronomical Twilight 5:39 AM EST 7:37 PM EST
Moon 2:32 PM EST (2/21) 4:01 AM EST (2/21)
Length of Visible Light 12h 00m
Length of Day
11h 09m
Waxing Gibbous, 83% of the Moon is Illuminated
Feb 21
Waxing Gibbous
Feb 25
Full
Mar 4
Last Quarter
Mar 11
New
Mar 19
First Quarter

Hourly Weather History & Observations

Time (EST) Temp. Windchill Dew Point Humidity Pressure Visibility Wind Dir Wind Speed Gust Speed Precip Events Conditions
12:54 AM 33.1 °F 28.7 °F 12.9 °F 43% 30.13 in 10.0 mi NE 4.6 mph - N/A   Clear
1:54 AM 33.1 °F 27.7 °F 12.9 °F 43% 30.13 in 10.0 mi NE 5.8 mph - N/A   Clear
2:54 AM 32.0 °F 26.4 °F 16.0 °F 52% 30.14 in 10.0 mi ENE 5.8 mph - N/A   Clear
3:54 AM 30.0 °F 23.2 °F 16.0 °F 56% 30.14 in 10.0 mi ENE 6.9 mph - N/A   Clear
4:54 AM 32.0 °F 26.4 °F 14.0 °F 48% 30.16 in 10.0 mi NE 5.8 mph - N/A   Clear
5:54 AM 30.0 °F - 16.0 °F 56% 30.18 in 10.0 mi Calm Calm - N/A   Clear
6:54 AM 28.9 °F 22.8 °F 16.0 °F 58% 30.19 in 10.0 mi ENE 5.8 mph - N/A   Clear
7:54 AM 34.0 °F 28.0 °F 17.1 °F 50% 30.21 in 10.0 mi ENE 6.9 mph - N/A   Clear
8:54 AM 37.9 °F 32.7 °F 16.0 °F 41% 30.23 in 10.0 mi ENE 6.9 mph - N/A   Clear
9:54 AM 43.0 °F 39.5 °F 16.0 °F 34% 30.22 in 10.0 mi NE 5.8 mph - N/A   Clear
10:54 AM 46.0 °F - 14.0 °F 28% 30.22 in 10.0 mi Calm Calm - N/A   Clear
11:54 AM 48.9 °F - 15.1 °F 26% 30.20 in 10.0 mi Variable 3.5 mph - N/A   Clear
12:54 PM 52.0 °F - 14.0 °F 22% 30.16 in 10.0 mi Variable 3.5 mph - N/A   Clear
1:54 PM 55.0 °F - 17.1 °F 23% 30.11 in 10.0 mi SE 3.5 mph - N/A   Clear
2:54 PM 57.0 °F - 16.0 °F 20% 30.10 in 10.0 mi SSE 5.8 mph - N/A   Clear
3:54 PM 57.9 °F - 18.0 °F 21% 30.12 in 10.0 mi Calm Calm - N/A   Clear
4:54 PM 55.9 °F - 19.9 °F 25% 30.11 in 10.0 mi ESE 4.6 mph - N/A   Clear
5:54 PM 54.0 °F - 19.9 °F 26% 30.12 in 10.0 mi Calm Calm - N/A   Clear
6:54 PM 51.1 °F - 24.1 °F 35% 30.13 in 10.0 mi Calm Calm - N/A   Clear
7:54 PM 50.0 °F - 21.9 °F 33% 30.13 in 10.0 mi East 6.9 mph - N/A   Clear
8:54 PM 48.0 °F - 26.1 °F 42% 30.14 in 10.0 mi ENE 6.9 mph - N/A   Clear
9:54 PM 48.0 °F - 26.1 °F 42% 30.22 in 6.0 mi WSW 3.5 mph - N/A   Haze
10:54 PM 46.9 °F - 32.0 °F 56% 30.19 in 10.0 mi NE 6.9 mph - 0.01 in Rain Light Rain
11:54 PM 46.0 °F 41.9 °F 33.1 °F 61% 30.25 in 10.0 mi NNE 8.1 mph - 0.00 in Rain Light Rain